Time,TemperatureF,DewpointF,PressureIn,WindDirection,WindDirectionDegrees,WindSpeedMPH,WindSpeedGustMPH,Humidity,HourlyPrecipIn,Conditions,Clouds,dailyrainin,SoftwareType,DateUTC
2013-12-07 00:00:00,-1.9,-6.3,30.73,NW,319,3.0,6.0,81,0.00,,,0.00,VWS V14.01,2013-12-07 06:00:00,
2013-12-07 00:02:00,-1.9,-6.3,30.73,NW,319,4.0,5.0,81,0.00,,CLR,0.00,VWS V14.01,2013-12-07 06:02:00,
2013-12-07 00:07:00,-1.9,-6.3,30.73,North,352,4.0,5.0,81,0.00,,CLR,0.00,VWS V14.01,2013-12-07 06:07:00,
2013-12-07 00:12:00,-1.9,-6.3,30.73,NW,326,3.0,6.0,81,0.00,,CLR,0.00,VWS V14.01,2013-12-07 06:12:00,
2013-12-07 00:17:00,-1.9,-6.3,30.73,NW,319,2.0,6.0,81,0.00,,CLR,0.00,VWS V14.01,2013-12-07 06:17:00,
2013-12-07 00:22:00,-1.9,-6.3,30.73,NW,313,1.0,6.0,81,0.00,,CLR,0.00,VWS V14.01,2013-12-07 06:22:00,
2013-12-07 00:27:00,-2.0,-6.4,30.74,NW,307,2.0,6.0,81,0.00,,CLR,0.00,VWS V14.01,2013-12-07 06:27:00,
2013-12-07 00:30:00,-2.1,-6.5,30.74,NW,316,0.0,6.0,81,0.00,,,0.00,VWS V14.01,2013-12-07 06:30:00,
2013-12-07 00:32:00,-2.0,-6.4,30.74,NW,308,1.0,6.0,81,0.00,,CLR,0.00,VWS V14.01,2013-12-07 06:32:00,
2013-12-07 00:37:00,-2.1,-6.5,30.74,NW,305,2.0,7.0,81,0.00,,CLR,0.00,VWS V14.01,2013-12-07 06:37:00,
2013-12-07 00:42:00,-2.2,-6.6,30.74,NW,304,2.0,7.0,81,0.00,,CLR,0.00,VWS V14.01,2013-12-07 06:42:00,
2013-12-07 00:47:00,-2.2,-6.6,30.74,North,4,1.0,8.0,81,0.00,,CLR,0.00,VWS V14.01,2013-12-07 06:47:00,
2013-12-07 00:52:00,-2.3,-6.7,30.74,NW,316,2.0,8.0,81,0.00,,CLR,0.00,VWS V14.01,2013-12-07 06:52:00,
2013-12-07 00:57:00,-2.3,-6.7,30.73,NW,318,1.0,8.0,81,0.00,,CLR,0.00,VWS V14.01,2013-12-07 06:57:00,
2013-12-07 01:00:00,-2.4,-6.8,30.73,North,356,2.0,8.0,81,0.00,,,0.00,VWS V14.01,2013-12-07 07:00:00,
2013-12-07 01:02:00,-2.4,-6.8,30.73,NNW,332,1.0,4.0,81,0.00,,CLR,0.00,VWS V14.01,2013-12-07 07:02:00,
2013-12-07 01:07:00,-2.5,-6.9,30.73,NNW,342,4.0,6.0,81,0.00,,CLR,0.00,VWS V14.01,2013-12-07 07:07:00,
2013-12-07 01:12:00,-2.6,-7.0,30.73,NW,310,1.0,7.0,81,0.00,,CLR,0.00,VWS V14.01,2013-12-07 07:12:00,
2013-12-07 01:17:00,-2.7,-7.1,30.73,WNW,285,0.0,7.0,81,0.00,,CLR,0.00,VWS V14.01,2013-12-07 07:17:00,
2013-12-07 01:22:00,-2.8,-7.2,30.74,NW,319,3.0,9.0,81,0.00,,CLR,0.00,VWS V14.01,2013-12-07 07:22:00,
2013-12-07 01:27:00,-2.9,-7.3,30.74,NW,316,2.0,9.0,81,0.00,,CLR,0.00,VWS V14.01,2013-12-07 07:27:00,
2013-12-07 01:30:00,-2.9,-7.3,30.74,WNW,283,2.0,9.0,81,0.00,,,0.00,VWS V14.01,2013-12-07 07:30:00,
2013-12-07 01:32:00,-3.0,-7.4,30.74,NW,322,1.0,3.0,81,0.00,,CLR,0.00,VWS V14.01,2013-12-07 07:32:00,
2013-12-07 01:37:00,-3.0,-7.4,30.74,NW,307,2.0,6.0,81,0.00,,CLR,0.00,VWS V14.01,2013-12-07 07:37:00,
2013-12-07 01:42:00,-3.1,-7.5,30.75,NW,322,2.0,6.0,81,0.00,,CLR,0.00,VWS V14.01,2013-12-07 07:42:00,
2013-12-07 01:47:00,-3.1,-7.5,30.75,NW,314,2.0,6.0,81,0.00,,CLR,0.00,VWS V14.01,2013-12-07 07:47:00,
2013-12-07 01:52:00,-3.2,-7.6,30.75,NW,308,3.0,6.0,81,0.00,,CLR,0.00,VWS V14.01,2013-12-07 07:52:00,
2013-12-07 01:56:00,-3.2,-7.6,30.75,NNE,15,1.0,7.0,81,0.00,,CLR,0.00,VWS V14.01,2013-12-07 07:56:00,
2013-12-07 02:00:00,-3.2,-7.6,30.75,WNW,295,0.0,7.0,81,0.00,,,0.00,VWS V14.01,2013-12-07 08:00:00,
2013-12-07 02:01:00,-3.3,-7.7,30.75,NNE,12,0.0,1.0,81,0.00,,CLR,0.00,VWS V14.01,2013-12-07 08:01:00,
2013-12-07 02:06:00,-3.3,-7.7,30.75,NW,316,2.0,5.0,81,0.00,,CLR,0.00,VWS V14.01,2013-12-07 08:06:00,
2013-12-07 02:11:00,-3.3,-7.7,30.75,NNW,347,5.0,5.0,81,0.00,,CLR,0.00,VWS V14.01,2013-12-07 08:11:00,
2013-12-07 02:16:00,-3.3,-7.7,30.75,NNE,17,3.0,8.0,81,0.00,,CLR,0.00,VWS V14.01,2013-12-07 08:16:00,
2013-12-07 02:21:00,-3.4,-7.8,30.75,NW,323,1.0,8.0,81,0.00,,CLR,0.00,VWS V14.01,2013-12-07 08:21:00,
2013-12-07 02:26:00,-3.4,-7.8,30.75,NW,323,2.0,8.0,81,0.00,,CLR,0.00,VWS V14.01,2013-12-07 08:26:00,
2013-12-07 02:30:00,-3.5,-7.9,30.76,NW,318,3.0,8.0,81,0.00,,,0.00,VWS V14.01,2013-12-07 08:30:00,
2013-12-07 02:31:00,-3.5,-7.9,30.76,NW,307,1.0,4.0,81,0.00,,CLR,0.00,VWS V14.01,2013-12-07 08:31:00,
2013-12-07 02:36:00,-3.6,-7.9,30.76,NW,324,1.0,4.0,81,0.00,,CLR,0.00,VWS V14.01,2013-12-07 08:36:00,
2013-12-07 02:41:00,-3.6,-7.9,30.76,NW,326,1.0,6.0,81,0.00,,CLR,0.00,VWS V14.01,2013-12-07 08:41:00,
2013-12-07 02:46:00,-3.7,-8.1,30.77,NNW,328,1.0,6.0,81,0.00,,CLR,0.00,VWS V14.01,2013-12-07 08:46:00,
2013-12-07 02:51:00,-3.7,-8.1,30.77,NNE,27,0.0,6.0,81,0.00,,CLR,0.00,VWS V14.01,2013-12-07 08:51:00,
2013-12-07 02:56:00,-3.8,-8.1,30.77,NW,326,0.0,6.0,81,0.00,,CLR,0.00,VWS V14.01,2013-12-07 08:56:00,
2013-12-07 03:00:00,-3.8,-8.1,30.78,North,352,0.0,6.0,81,0.00,,,0.00,VWS V14.01,2013-12-07 09:00:00,
2013-12-07 03:01:00,-3.8,-8.1,30.78,NNW,329,2.0,2.0,81,0.00,,CLR,0.00,VWS V14.01,2013-12-07 09:01:00,
2013-12-07 03:06:00,-3.9,-8.2,30.77,NNW,330,1.0,4.0,81,0.00,,CLR,0.00,VWS V14.01,2013-12-07 09:06:00,
2013-12-07 03:11:00,-4.0,-8.4,30.77,NNW,340,1.0,4.0,81,0.00,,CLR,0.00,VWS V14.01,2013-12-07 09:11:00,
2013-12-07 03:16:00,-4.0,-8.4,30.77,NW,306,2.0,5.0,81,0.00,,CLR,0.00,VWS V14.01,2013-12-07 09:16:00,
2013-12-07 03:21:00,-4.0,-8.4,30.77,NW,322,1.0,5.0,81,0.00,,CLR,0.00,VWS V14.01,2013-12-07 09:21:00,
2013-12-07 03:26:00,-4.1,-8.4,30.77,NNE,13,0.0,5.0,81,0.00,,CLR,0.00,VWS V14.01,2013-12-07 09:26:00,
2013-12-07 03:30:00,-4.1,-8.4,30.76,NW,310,2.0,5.0,81,0.00,,,0.00,VWS V14.01,2013-12-07 09:30:00,
2013-12-07 03:31:00,-4.1,-8.4,30.76,NW,308,3.0,5.0,81,0.00,,CLR,0.00,VWS V14.01,2013-12-07 09:31:00,
2013-12-07 03:36:00,-4.2,-8.5,30.77,NNW,346,2.0,5.0,81,0.00,,CLR,0.00,VWS V14.01,2013-12-07 09:36:00,
2013-12-07 03:41:00,-4.2,-8.5,30.77,NNE,25,3.0,6.0,81,0.00,,CLR,0.00,VWS V14.01,2013-12-07 09:41:00,
2013-12-07 03:46:00,-4.2,-8.5,30.76,NW,321,3.0,6.0,81,0.00,,CLR,0.00,VWS V14.01,2013-12-07 09:46:00,
2013-12-07 03:51:00,-4.3,-8.6,30.76,NW,322,3.0,6.0,81,0.00,,CLR,0.00,VWS V14.01,2013-12-07 09:51:00,
2013-12-07 03:56:00,-4.3,-8.6,30.76,NNE,30,6.0,6.0,81,0.00,,CLR,0.00,VWS V14.01,2013-12-07 09:56:00,
2013-12-07 04:00:00,-4.3,-8.6,30.76,NNW,329,2.0,6.0,81,0.00,,,0.00,VWS V14.01,2013-12-07 10:00:00,
2013-12-07 04:01:00,-4.4,-8.7,30.76,NNW,335,2.0,3.0,81,0.00,,CLR,0.00,VWS V14.01,2013-12-07 10:01:00,
2013-12-07 04:06:00,-4.4,-8.7,30.76,NNE,13,5.0,5.0,81,0.00,,CLR,0.00,VWS V14.01,2013-12-07 10:06:00,
2013-12-07 04:11:00,-4.4,-8.7,30.77,NW,313,0.0,6.0,81,0.00,,CLR,0.00,VWS V14.01,2013-12-07 10:11:00,
2013-12-07 04:16:00,-4.5,-8.6,30.76,NNW,335,1.0,6.0,82,0.00,,CLR,0.00,VWS V14.01,2013-12-07 10:16:00,
2013-12-07 04:21:00,-4.5,-8.6,30.77,NNW,341,0.0,8.0,82,0.00,,CLR,0.00,VWS V14.01,2013-12-07 10:21:00,
2013-12-07 04:26:00,-4.5,-8.8,30.77,NNW,340,2.0,8.0,81,0.00,,CLR,0.00,VWS V14.01,2013-12-07 10:26:00,
2013-12-07 04:30:00,-4.6,-8.9,30.77,NNW,339,1.0,8.0,81,0.00,,,0.00,VWS V14.01,2013-12-07 10:30:00,
2013-12-07 04:31:00,-4.6,-8.9,30.77,NW,323,2.0,4.0,81,0.00,,CLR,0.00,VWS V14.01,2013-12-07 10:31:00,
2013-12-07 04:36:00,-4.6,-8.7,30.77,North,8,3.0,7.0,82,0.00,,CLR,0.00,VWS V14.01,2013-12-07 10:36:00,
2013-12-07 04:41:00,-4.7,-8.8,30.77,NW,323,2.0,7.0,82,0.00,,CLR,0.00,VWS V14.01,2013-12-07 10:41:00,
2013-12-07 04:46:00,-4.7,-8.8,30.77,North,4,2.0,7.0,82,0.00,,CLR,0.00,VWS V14.01,2013-12-07 10:46:00,
2013-12-07 04:51:00,-4.7,-8.8,30.77,NNW,330,3.0,8.0,82,0.00,,CLR,0.00,VWS V14.01,2013-12-07 10:51:00,
2013-12-07 04:56:00,-4.8,-8.9,30.77,NW,323,1.0,8.0,82,0.00,,CLR,0.00,VWS V14.01,2013-12-07 10:56:00,
2013-12-07 05:00:00,-4.8,-8.9,30.77,North,350,3.0,8.0,82,0.00,,,0.00,VWS V14.01,2013-12-07 11:00:00,
2013-12-07 05:01:00,-4.8,-8.9,30.77,NNW,348,3.0,4.0,82,0.00,,CLR,0.00,VWS V14.01,2013-12-07 11:01:00,
2013-12-07 05:06:00,-4.9,-9.0,30.77,NNW,347,0.0,5.0,82,0.00,,CLR,0.00,VWS V14.01,2013-12-07 11:06:00,
2013-12-07 05:11:00,-4.9,-9.0,30.77,NNW,332,6.0,6.0,82,0.00,,CLR,0.00,VWS V14.01,2013-12-07 11:11:00,
2013-12-07 05:16:00,-4.9,-9.0,30.76,NNW,335,5.0,7.0,82,0.00,,CLR,0.00,VWS V14.01,2013-12-07 11:16:00,
2013-12-07 05:21:00,-4.9,-9.0,30.77,NNW,329,1.0,7.0,82,0.00,,CLR,0.00,VWS V14.01,2013-12-07 11:21:00,
2013-12-07 05:26:00,-5.0,-9.1,30.77,NW,316,1.0,7.0,82,0.00,,CLR,0.00,VWS V14.01,2013-12-07 11:26:00,
2013-12-07 05:30:00,-5.0,-9.1,30.77,NNW,338,3.0,7.0,82,0.00,,,0.00,VWS V14.01,2013-12-07 11:30:00,
2013-12-07 05:31:00,-5.0,-9.1,30.77,WNW,291,0.0,4.0,82,0.00,,CLR,0.00,VWS V14.01,2013-12-07 11:31:00,
2013-12-07 05:36:00,-5.0,-9.1,30.77,WNW,285,1.0,4.0,82,0.00,,CLR,0.00,VWS V14.01,2013-12-07 11:36:00,
2013-12-07 05:41:00,-5.1,-9.2,30.78,NW,313,0.0,4.0,82,0.00,,CLR,0.00,VWS V14.01,2013-12-07 11:41:00,
2013-12-07 05:46:00,-5.1,-9.2,30.78,WNW,301,1.0,4.0,82,0.00,,CLR,0.00,VWS V14.01,2013-12-07 11:46:00,
2013-12-07 05:51:00,-5.1,-9.2,30.78,WNW,300,1.0,4.0,82,0.00,,CLR,0.00,VWS V14.01,2013-12-07 11:51:00,
2013-12-07 05:56:00,-5.1,-9.2,30.78,NNW,338,1.0,4.0,82,0.00,,CLR,0.00,VWS V14.01,2013-12-07 11:56:00,
2013-12-07 06:00:00,-5.0,-9.1,30.78,North,356,1.0,4.0,82,0.00,,,0.00,VWS V14.01,2013-12-07 12:00:00,
2013-12-07 06:01:00,-5.0,-9.1,30.78,NW,326,1.0,2.0,82,0.00,,CLR,0.00,VWS V14.01,2013-12-07 12:01:00,
2013-12-07 06:06:00,-5.0,-9.1,30.78,NNW,333,1.0,6.0,82,0.00,,CLR,0.00,VWS V14.01,2013-12-07 12:06:00,
2013-12-07 06:11:00,-5.0,-9.1,30.78,NNW,342,1.0,6.0,82,0.00,,CLR,0.00,VWS V14.01,2013-12-07 12:11:00,
2013-12-07 06:16:00,-4.9,-9.2,30.78,NNE,18,4.0,7.0,81,0.00,,CLR,0.00,VWS V14.01,2013-12-07 12:16:00,
2013-12-07 06:21:00,-5.0,-9.3,30.78,NNW,332,2.0,7.0,81,0.00,,CLR,0.00,VWS V14.01,2013-12-07 12:21:00,
2013-12-07 06:26:00,-5.0,-9.3,30.78,WNW,297,2.0,7.0,81,0.00,,CLR,0.00,VWS V14.01,2013-12-07 12:26:00,
2013-12-07 06:30:00,-5.0,-9.3,30.78,NW,319,0.0,7.0,81,0.00,,,0.00,VWS V14.01,2013-12-07 12:30:00,
2013-12-07 06:31:00,-5.1,-9.4,30.79,NNW,330,0.0,1.0,81,0.00,,CLR,0.00,VWS V14.01,2013-12-07 12:31:00,
2013-12-07 06:36:00,-5.1,-9.4,30.78,North,11,1.0,4.0,81,0.00,,CLR,0.00,VWS V14.01,2013-12-07 12:36:00,
2013-12-07 06:41:00,-5.1,-9.4,30.78,NW,319,1.0,6.0,81,0.00,,CLR,0.00,VWS V14.01,2013-12-07 12:41:00,
2013-12-07 06:46:00,-5.2,-9.5,30.78,NE,51,0.0,6.0,81,0.00,,CLR,0.00,VWS V14.01,2013-12-07 12:46:00,
2013-12-07 06:51:00,-5.2,-9.5,30.78,NE,44,2.0,6.0,81,0.00,,CLR,0.00,VWS V14.01,2013-12-07 12:51:00,
2013-12-07 06:56:00,-5.2,-9.5,30.78,NNE,20,3.0,6.0,81,0.00,,CLR,0.00,VWS V14.01,2013-12-07 12:56:00,
2013-12-07 07:00:00,-5.2,-9.5,30.78,NNW,330,0.0,6.0,81,0.00,,,0.00,VWS V14.01,2013-12-07 13:00:00,
2013-12-07 07:01:00,-5.2,-9.5,30.78,North,4,1.0,1.0,81,0.00,,CLR,0.00,VWS V14.01,2013-12-07 13:01:00,
2013-12-07 07:06:00,-5.3,-9.6,30.78,North,9,0.0,1.0,81,0.00,,CLR,0.00,VWS V14.01,2013-12-07 13:06:00,
2013-12-07 07:11:00,-5.4,-9.7,30.78,NNW,333,3.0,5.0,81,0.00,,CLR,0.00,VWS V14.01,2013-12-07 13:11:00,
2013-12-07 07:16:00,-5.4,-9.7,30.78,NNE,19,3.0,5.0,81,0.00,,CLR,0.00,VWS V14.01,2013-12-07 13:16:00,
2013-12-07 07:21:00,-5.4,-9.7,30.77,NW,323,1.0,5.0,81,0.00,,CLR,0.00,VWS V14.01,2013-12-07 13:21:00,
2013-12-07 07:26:00,-5.4,-9.7,30.77,North,355,0.0,5.0,81,0.00,,CLR,0.00,VWS V14.01,2013-12-07 13:26:00,
2013-12-07 07:30:00,-5.5,-9.8,30.77,NNE,27,4.0,5.0,81,0.00,,,0.00,VWS V14.01,2013-12-07 13:30:00,
2013-12-07 07:31:00,-5.5,-9.8,30.77,NNE,25,2.0,4.0,81,0.00,,CLR,0.00,VWS V14.01,2013-12-07 13:31:00,
2013-12-07 07:36:00,-5.5,-9.8,30.77,NW,316,0.0,5.0,81,0.00,,CLR,0.00,VWS V14.01,2013-12-07 13:36:00,
2013-12-07 07:41:00,-5.5,-9.8,30.78,NNW,345,0.0,5.0,81,0.00,,CLR,0.00,VWS V14.01,2013-12-07 13:41:00,
2013-12-07 07:46:00,-5.3,-9.6,30.78,NW,311,1.0,5.0,81,0.00,,CLR,0.00,VWS V14.01,2013-12-07 13:46:00,
2013-12-07 07:51:00,-5.1,-9.4,30.78,North,354,3.0,5.0,81,0.00,,CLR,0.00,VWS V14.01,2013-12-07 13:51:00,
2013-12-07 07:56:00,-5.0,-9.6,30.78,NNW,345,0.0,6.0,80,0.00,,CLR,0.00,VWS V14.01,2013-12-07 13:56:00,
2013-12-07 08:00:00,-4.8,-9.4,30.77,North,352,3.0,7.0,80,0.00,,,0.00,VWS V14.01,2013-12-07 14:00:00,
2013-12-07 08:01:00,-4.8,-9.4,30.78,North,1,3.0,6.0,80,0.00,,CLR,0.00,VWS V14.01,2013-12-07 14:01:00,
2013-12-07 08:06:00,-4.7,-9.3,30.78,NNE,12,4.0,6.0,80,0.00,,CLR,0.00,VWS V14.01,2013-12-07 14:06:00,
2013-12-07 08:11:00,-4.6,-9.2,30.78,NNE,25,2.0,6.0,80,0.00,,CLR,0.00,VWS V14.01,2013-12-07 14:11:00,
2013-12-07 08:16:00,-4.5,-9.1,30.78,NNW,338,1.0,6.0,80,0.00,,CLR,0.00,VWS V14.01,2013-12-07 14:16:00,
2013-12-07 08:21:00,-4.1,-8.7,30.78,NW,326,0.0,6.0,80,0.00,,CLR,0.00,VWS V14.01,2013-12-07 14:21:00,
2013-12-07 08:26:00,-3.9,-8.5,30.78,North,5,1.0,7.0,80,0.00,,CLR,0.00,VWS V14.01,2013-12-07 14:26:00,
2013-12-07 08:30:00,-3.8,-8.7,30.79,North,360,1.0,7.0,79,0.00,,,0.00,VWS V14.01,2013-12-07 14:30:00,
2013-12-07 08:31:00,-3.7,-8.6,30.79,North,9,2.0,4.0,79,0.00,,CLR,0.00,VWS V14.01,2013-12-07 14:31:00,
2013-12-07 08:36:00,-3.5,-8.4,30.79,NNW,330,1.0,5.0,79,0.00,,CLR,0.00,VWS V14.01,2013-12-07 14:36:00,
2013-12-07 08:41:00,-3.3,-8.2,30.80,NNE,25,0.0,7.0,79,0.00,,CLR,0.00,VWS V14.01,2013-12-07 14:41:00,
2013-12-07 08:46:00,-2.7,-7.6,30.80,NW,324,0.0,7.0,79,0.00,,CLR,0.00,VWS V14.01,2013-12-07 14:46:00,
2013-12-07 08:51:00,-2.6,-7.8,30.80,NNE,21,2.0,7.0,78,0.00,,CLR,0.00,VWS V14.01,2013-12-07 14:51:00,
2013-12-07 08:56:00,-2.6,-7.8,30.80,NW,322,1.0,7.0,78,0.00,,CLR,0.00,VWS V14.01,2013-12-07 14:56:00,
2013-12-07 09:00:00,-2.4,-7.6,30.80,NNE,29,1.0,7.0,78,0.00,,,0.00,VWS V14.01,2013-12-07 15:00:00,
2013-12-07 09:01:00,-2.3,-7.5,30.80,North,8,5.0,6.0,78,0.00,,CLR,0.00,VWS V14.01,2013-12-07 15:01:00,
2013-12-07 09:06:00,-2.3,-7.7,30.81,North,11,1.0,6.0,77,0.00,,CLR,0.00,VWS V14.01,2013-12-07 15:06:00,
2013-12-07 09:11:00,-2.1,-7.5,30.81,North,360,4.0,6.0,77,0.00,,CLR,0.00,VWS V14.01,2013-12-07 15:11:00,
2013-12-07 09:16:00,-2.1,-7.8,30.81,NNW,338,2.0,6.0,76,0.00,,CLR,0.00,VWS V14.01,2013-12-07 15:16:00,
2013-12-07 09:21:00,-2.0,-7.7,30.81,North,350,3.0,8.0,76,0.00,,CLR,0.00,VWS V14.01,2013-12-07 15:21:00,
2013-12-07 09:26:00,-1.8,-7.2,30.81,WNW,295,1.0,8.0,77,0.00,,CLR,0.00,VWS V14.01,2013-12-07 15:26:00,
2013-12-07 09:30:00,-1.5,-6.9,30.81,North,358,5.0,8.0,77,0.00,,,0.00,VWS V14.01,2013-12-07 15:30:00,
2013-12-07 09:31:00,-1.5,-6.9,30.81,North,11,3.0,5.0,77,0.00,,CLR,0.00,VWS V14.01,2013-12-07 15:31:00,
2013-12-07 09:36:00,-1.1,-6.3,30.81,NNE,15,3.0,5.0,78,0.00,,CLR,0.00,VWS V14.01,2013-12-07 15:36:00,
2013-12-07 09:41:00,-0.7,-6.2,30.81,NW,316,2.0,5.0,77,0.00,,CLR,0.00,VWS V14.01,2013-12-07 15:41:00,
2013-12-07 09:46:00,-0.5,-6.0,30.82,WNW,285,1.0,5.0,77,0.00,,CLR,0.00,VWS V14.01,2013-12-07 15:46:00,
2013-12-07 09:51:00,-0.4,-5.9,30.82,NNE,21,0.0,5.0,77,0.00,,CLR,0.00,VWS V14.01,2013-12-07 15:51:00,
2013-12-07 09:56:00,-0.1,-5.2,30.82,North,9,2.0,5.0,78,0.00,,CLR,0.00,VWS V14.01,2013-12-07 15:56:00,
2013-12-07 10:00:00,0.3,-5.2,30.82,NNW,347,2.0,5.0,77,0.00,,,0.00,VWS V14.01,2013-12-07 16:00:00,
2013-12-07 10:01:00,0.4,-5.1,30.82,NNW,329,1.0,2.0,77,0.00,,CLR,0.00,VWS V14.01,2013-12-07 16:01:00,
2013-12-07 10:06:00,0.6,-5.2,30.82,NW,305,1.0,3.0,76,0.00,,CLR,0.00,VWS V14.01,2013-12-07 16:06:00,
2013-12-07 10:11:00,0.5,-5.3,30.82,North,8,2.0,3.0,76,0.00,,CLR,0.00,VWS V14.01,2013-12-07 16:11:00,
2013-12-07 10:16:00,0.4,-5.4,30.82,North,356,3.0,6.0,76,0.00,,CLR,0.00,VWS V14.01,2013-12-07 16:16:00,
2013-12-07 10:21:00,0.6,-5.2,30.82,WNW,297,2.0,6.0,76,0.00,,CLR,0.00,VWS V14.01,2013-12-07 16:21:00,
2013-12-07 10:26:00,0.8,-4.7,30.82,North,8,2.0,6.0,77,0.00,,CLR,0.00,VWS V14.01,2013-12-07 16:26:00,
2013-12-07 10:30:00,1.0,-4.8,30.82,West,267,1.0,6.0,76,0.00,,,0.00,VWS V14.01,2013-12-07 16:30:00,
2013-12-07 10:31:00,1.0,-4.5,30.82,West,281,0.0,1.0,77,0.00,,CLR,0.00,VWS V14.01,2013-12-07 16:31:00,
2013-12-07 10:36:00,1.4,-4.1,30.83,WNW,288,4.0,5.0,77,0.00,,CLR,0.00,VWS V14.01,2013-12-07 16:36:00,
2013-12-07 10:41:00,1.3,-4.8,30.82,WNW,292,3.0,6.0,75,0.00,,CLR,0.00,VWS V14.01,2013-12-07 16:41:00,
2013-12-07 10:46:00,1.4,-4.4,30.82,North,350,1.0,6.0,76,0.00,,CLR,0.00,VWS V14.01,2013-12-07 16:46:00,
2013-12-07 10:51:00,1.7,-4.1,30.82,NW,316,2.0,6.0,76,0.00,,CLR,0.00,VWS V14.01,2013-12-07 16:51:00,
2013-12-07 10:56:00,2.1,-3.7,30.82,NW,307,0.0,6.0,76,0.00,,CLR,0.00,VWS V14.01,2013-12-07 16:56:00,
2013-12-07 11:00:00,2.3,-3.8,30.81,NNW,340,0.0,6.0,75,0.00,,,0.00,VWS V14.01,2013-12-07 17:00:00,
2013-12-07 11:01:00,2.3,-3.8,30.81,NW,318,2.0,2.0,75,0.00,,CLR,0.00,VWS V14.01,2013-12-07 17:01:00,
2013-12-07 11:06:00,2.5,-3.6,30.81,WNW,288,0.0,3.0,75,0.00,,CLR,0.00,VWS V14.01,2013-12-07 17:06:00,
2013-12-07 11:11:00,2.7,-3.4,30.81,NW,322,1.0,3.0,75,0.00,,CLR,0.00,VWS V14.01,2013-12-07 17:11:00,
2013-12-07 11:16:00,2.8,-3.3,30.80,NNW,329,2.0,5.0,75,0.00,,CLR,0.00,VWS V14.01,2013-12-07 17:16:00,
2013-12-07 11:21:00,2.9,-3.2,30.79,NW,319,0.0,5.0,75,0.00,,CLR,0.00,VWS V14.01,2013-12-07 17:21:00,
2013-12-07 11:26:00,3.3,-2.5,30.79,WNW,297,2.0,6.0,76,0.00,,CLR,0.00,VWS V14.01,2013-12-07 17:26:00,
2013-12-07 11:30:00,3.5,-2.6,30.79,NNW,346,2.0,6.0,75,0.00,,,0.00,VWS V14.01,2013-12-07 17:30:00,
2013-12-07 11:31:00,3.6,-2.5,30.80,NW,319,1.0,2.0,75,0.00,,CLR,0.00,VWS V14.01,2013-12-07 17:31:00,
2013-12-07 11:36:00,3.9,-2.5,30.79,WNW,292,2.0,4.0,74,0.00,,CLR,0.00,VWS V14.01,2013-12-07 17:36:00,
2013-12-07 11:41:00,4.1,-2.3,30.79,WNW,283,1.0,4.0,74,0.00,,CLR,0.00,VWS V14.01,2013-12-07 17:41:00,
2013-12-07 11:46:00,4.5,-2.2,30.78,North,358,2.0,4.0,73,0.00,,CLR,0.00,VWS V14.01,2013-12-07 17:46:00,
2013-12-07 11:51:00,4.9,-1.6,30.79,West,259,1.0,4.0,74,0.00,,CLR,0.00,VWS V14.01,2013-12-07 17:51:00,
2013-12-07 11:56:00,4.8,-2.2,30.79,NW,325,1.0,4.0,72,0.00,,CLR,0.00,VWS V14.01,2013-12-07 17:56:00,
2013-12-07 12:00:00,4.5,-2.8,30.78,West,259,4.0,5.0,71,0.00,,,0.00,VWS V14.01,2013-12-07 18:00:00,
2013-12-07 12:01:00,4.5,-2.8,30.78,West,270,2.0,5.0,71,0.00,,CLR,0.00,VWS V14.01,2013-12-07 18:01:00,
2013-12-07 12:06:00,4.6,-2.1,30.78,NW,323,1.0,5.0,73,0.00,,CLR,0.00,VWS V14.01,2013-12-07 18:06:00,
2013-12-07 12:11:00,4.9,-1.8,30.78,NW,311,1.0,5.0,73,0.00,,CLR,0.00,VWS V14.01,2013-12-07 18:11:00,
2013-12-07 12:16:00,5.3,-1.5,30.78,NNW,331,1.0,5.0,73,0.00,,CLR,0.00,VWS V14.01,2013-12-07 18:16:00,
2013-12-07 12:21:00,5.6,-1.5,30.78,WNW,294,1.0,5.0,72,0.00,,CLR,0.00,VWS V14.01,2013-12-07 18:21:00,
2013-12-07 12:26:00,5.7,-1.1,30.78,West,277,5.0,5.0,73,0.00,,CLR,0.00,VWS V14.01,2013-12-07 18:26:00,
2013-12-07 12:30:00,5.3,-2.0,30.78,West,281,4.0,7.0,71,0.00,,,0.00,VWS V14.01,2013-12-07 18:30:00,
2013-12-07 12:31:00,5.3,-2.0,30.78,West,279,1.0,4.0,71,0.00,,CLR,0.00,VWS V14.01,2013-12-07 18:31:00,
2013-12-07 12:36:00,5.4,-1.6,30.78,WNW,288,1.0,4.0,72,0.00,,CLR,0.00,VWS V14.01,2013-12-07 18:36:00,
2013-12-07 12:41:00,5.8,-1.3,30.78,NNW,337,2.0,4.0,72,0.00,,CLR,0.00,VWS V14.01,2013-12-07 18:41:00,
2013-12-07 12:46:00,6.0,-1.4,30.78,WNW,294,2.0,4.0,71,0.00,,CLR,0.00,VWS V14.01,2013-12-07 18:46:00,
2013-12-07 12:51:00,6.2,-0.9,30.77,NNE,32,2.0,5.0,72,0.00,,CLR,0.00,VWS V14.01,2013-12-07 18:51:00,
2013-12-07 12:56:00,6.6,-1.1,30.77,WSW,254,2.0,6.0,70,0.00,,CLR,0.00,VWS V14.01,2013-12-07 18:56:00,
2013-12-07 13:00:00,6.7,-1.3,30.78,WSW,257,2.0,6.0,69,0.00,,,0.00,VWS V14.01,2013-12-07 19:00:00,
2013-12-07 13:01:00,6.7,-1.3,30.78,West,264,1.0,1.0,69,0.00,,CLR,0.00,VWS V14.01,2013-12-07 19:01:00,
2013-12-07 13:06:00,6.9,-1.1,30.77,WSW,257,2.0,6.0,69,0.00,,CLR,0.00,VWS V14.01,2013-12-07 19:06:00,
2013-12-07 13:11:00,7.2,-0.5,30.77,SW,228,0.0,6.0,70,0.00,,CLR,0.00,VWS V14.01,2013-12-07 19:11:00,
2013-12-07 13:16:00,7.7,-0.3,30.77,West,270,2.0,6.0,69,0.00,,CLR,0.00,VWS V14.01,2013-12-07 19:16:00,
2013-12-07 13:21:00,8.0,-0.1,30.77,WSW,242,2.0,6.0,69,0.00,,CLR,0.00,VWS V14.01,2013-12-07 19:21:00,
2013-12-07 13:26:00,8.3,-0.1,30.77,WSW,243,4.0,6.0,68,0.00,,CLR,0.00,VWS V14.01,2013-12-07 19:26:00,
2013-12-07 13:30:00,8.3,-0.4,30.77,WNW,288,4.0,7.0,67,0.00,,,0.00,VWS V14.01,2013-12-07 19:30:00,
2013-12-07 13:31:00,8.2,-0.5,30.77,West,281,5.0,5.0,67,0.00,,CLR,0.00,VWS V14.01,2013-12-07 19:31:00,
2013-12-07 13:36:00,8.1,-0.6,30.76,West,276,4.0,5.0,67,0.00,,CLR,0.00,VWS V14.01,2013-12-07 19:36:00,
2013-12-07 13:41:00,8.0,-1.0,30.76,WNW,302,3.0,9.0,66,0.00,,CLR,0.00,VWS V14.01,2013-12-07 19:41:00,
2013-12-07 13:46:00,7.8,-0.9,30.76,SW,229,3.0,9.0,67,0.00,,CLR,0.00,VWS V14.01,2013-12-07 19:46:00,
2013-12-07 13:51:00,8.1,-0.6,30.76,WNW,300,1.0,9.0,67,0.00,,CLR,0.00,VWS V14.01,2013-12-07 19:51:00,
2013-12-07 13:56:00,8.5,-0.5,30.75,SW,218,2.0,9.0,66,0.00,,CLR,0.00,VWS V14.01,2013-12-07 19:56:00,
2013-12-07 14:00:00,8.5,-1.2,30.75,West,268,2.0,9.0,64,0.00,,,0.00,VWS V14.01,2013-12-07 20:00:00,
2013-12-07 14:01:00,8.4,-1.3,30.75,WSW,243,2.0,2.0,64,0.00,,CLR,0.00,VWS V14.01,2013-12-07 20:01:00,
2013-12-07 14:06:00,8.5,-1.2,30.75,SW,214,3.0,5.0,64,0.00,,CLR,0.00,VWS V14.01,2013-12-07 20:06:00,
2013-12-07 14:11:00,8.6,-0.7,30.75,West,269,1.0,5.0,65,0.00,,CLR,0.00,VWS V14.01,2013-12-07 20:11:00,
2013-12-07 14:16:00,9.0,0.0,30.74,SW,229,1.0,5.0,66,0.00,,CLR,0.00,VWS V14.01,2013-12-07 20:16:00,
2013-12-07 14:21:00,9.4,0.0,30.74,West,272,3.0,5.0,65,0.00,,CLR,0.00,VWS V14.01,2013-12-07 20:21:00,
2013-12-07 14:26:00,9.6,0.2,30.74,NW,308,0.0,5.0,65,0.00,,CLR,0.00,VWS V14.01,2013-12-07 20:26:00,
2013-12-07 14:30:00,10.2,0.5,30.74,WNW,297,2.0,5.0,64,0.00,,,0.00,VWS V14.01,2013-12-07 20:30:00,
2013-12-07 14:31:00,10.2,0.1,30.74,WNW,294,2.0,2.0,63,0.00,,CLR,0.00,VWS V14.01,2013-12-07 20:31:00,
2013-12-07 14:36:00,9.9,-0.2,30.73,WSW,238,0.0,3.0,63,0.00,,CLR,0.00,VWS V14.01,2013-12-07 20:36:00,
2013-12-07 14:41:00,10.1,0.4,30.73,West,274,0.0,3.0,64,0.00,,CLR,0.00,VWS V14.01,2013-12-07 20:41:00,
2013-12-07 14:46:00,10.1,0.4,30.73,West,278,0.0,3.0,64,0.00,,CLR,0.00,VWS V14.01,2013-12-07 20:46:00,
2013-12-07 14:51:00,10.2,0.5,30.73,SW,218,0.0,3.0,64,0.00,,CLR,0.00,VWS V14.01,2013-12-07 20:51:00,
2013-12-07 14:56:00,10.6,0.5,30.73,North,4,1.0,4.0,63,0.00,,CLR,0.00,VWS V14.01,2013-12-07 20:56:00,
2013-12-07 15:00:00,10.0,-0.1,30.73,NNE,15,1.0,5.0,63,0.00,,,0.00,VWS V14.01,2013-12-07 21:00:00,
2013-12-07 15:01:00,10.0,-0.1,30.73,NNE,20,1.0,1.0,63,0.00,,CLR,0.00,VWS V14.01,2013-12-07 21:01:00,
2013-12-07 15:06:00,9.9,0.2,30.73,North,6,2.0,5.0,64,0.00,,CLR,0.00,VWS V14.01,2013-12-07 21:06:00,
2013-12-07 15:11:00,9.7,0.0,30.73,NW,305,1.0,5.0,64,0.00,,CLR,0.00,VWS V14.01,2013-12-07 21:11:00,
2013-12-07 15:16:00,9.8,0.4,30.72,NE,34,0.0,5.0,65,0.00,,CLR,0.00,VWS V14.01,2013-12-07 21:16:00,
2013-12-07 15:21:00,9.8,0.4,30.72,North,5,3.0,5.0,65,0.00,,CLR,0.00,VWS V14.01,2013-12-07 21:21:00,
2013-12-07 15:26:00,9.7,0.0,30.72,North,4,0.0,5.0,64,0.00,,CLR,0.00,VWS V14.01,2013-12-07 21:26:00,
2013-12-07 15:30:00,9.6,-0.1,30.72,NNW,329,2.0,5.0,64,0.00,,,0.00,VWS V14.01,2013-12-07 21:30:00,
2013-12-07 15:31:00,9.6,-0.1,30.72,North,11,0.0,2.0,64,0.00,,CLR,0.00,VWS V14.01,2013-12-07 21:31:00,
2013-12-07 15:36:00,9.6,0.2,30.71,NNW,340,2.0,3.0,65,0.00,,CLR,0.00,VWS V14.01,2013-12-07 21:36:00,
2013-12-07 15:41:00,9.6,-0.1,30.72,North,9,0.0,3.0,64,0.00,,CLR,0.00,VWS V14.01,2013-12-07 21:41:00,
2013-12-07 15:46:00,9.7,0.0,30.71,NNW,340,1.0,3.0,64,0.00,,CLR,0.00,VWS V14.01,2013-12-07 21:46:00,
2013-12-07 15:51:00,9.4,-0.6,30.70,North,352,1.0,3.0,63,0.00,,CLR,0.00,VWS V14.01,2013-12-07 21:51:00,
2013-12-07 15:56:00,9.2,-0.5,30.70,North,349,0.0,3.0,64,0.00,,CLR,0.00,VWS V14.01,2013-12-07 21:56:00,
2013-12-07 16:00:00,9.2,-0.5,30.70,NNE,12,1.0,3.0,64,0.00,,,0.00,VWS V14.01,2013-12-07 22:00:00,
2013-12-07 16:01:00,9.2,-0.5,30.70,NNE,12,0.0,1.0,64,0.00,,CLR,0.00,VWS V14.01,2013-12-07 22:01:00,
2013-12-07 16:06:00,9.0,-0.4,30.70,North,356,0.0,1.0,65,0.00,,CLR,0.00,VWS V14.01,2013-12-07 22:06:00,
2013-12-07 16:11:00,8.8,-0.2,30.69,North,356,0.0,1.0,66,0.00,,CLR,0.00,VWS V14.01,2013-12-07 22:11:00,
2013-12-07 16:16:00,8.5,-0.2,30.69,North,356,0.0,1.0,67,0.00,,CLR,0.00,VWS V14.01,2013-12-07 22:16:00,
2013-12-07 16:21:00,8.2,-0.5,30.69,North,356,0.0,1.0,67,0.00,,CLR,0.00,VWS V14.01,2013-12-07 22:21:00,
2013-12-07 16:26:00,7.8,-0.6,30.69,North,356,0.0,1.0,68,0.00,,CLR,0.00,VWS V14.01,2013-12-07 22:26:00,
2013-12-07 16:30:00,7.3,-0.7,30.68,North,355,0.0,1.0,69,0.00,,,0.00,VWS V14.01,2013-12-07 22:30:00,
2013-12-07 16:31:00,7.3,-0.7,30.68,North,356,0.0,0.0,69,0.00,,CLR,0.00,VWS V14.01,2013-12-07 22:31:00,
2013-12-07 16:36:00,7.0,-0.7,30.68,North,356,0.0,0.0,70,0.00,,CLR,0.00,VWS V14.01,2013-12-07 22:36:00,
2013-12-07 16:41:00,6.9,-0.5,30.68,North,356,0.0,0.0,71,0.00,,CLR,0.00,VWS V14.01,2013-12-07 22:41:00,
2013-12-07 16:46:00,6.6,-0.8,30.68,North,356,0.0,0.0,71,0.00,,CLR,0.00,VWS V14.01,2013-12-07 22:46:00,
2013-12-07 16:51:00,6.3,-0.8,30.68,North,356,0.0,0.0,72,0.00,,CLR,0.00,VWS V14.01,2013-12-07 22:51:00,
2013-12-07 16:56:00,6.1,-1.0,30.68,North,356,0.0,0.0,72,0.00,,CLR,0.00,VWS V14.01,2013-12-07 22:56:00,
2013-12-07 17:00:00,5.9,-1.2,30.68,North,356,0.0,0.0,72,0.00,,,0.00,VWS V14.01,2013-12-07 23:00:00,
2013-12-07 17:01:00,5.9,-1.2,30.68,North,356,0.0,0.0,72,0.00,,CLR,0.00,VWS V14.01,2013-12-07 23:01:00,
2013-12-07 17:06:00,5.7,-1.1,30.68,North,356,0.0,0.0,73,0.00,,CLR,0.00,VWS V14.01,2013-12-07 23:06:00,
2013-12-07 17:11:00,5.6,-1.2,30.68,North,356,0.0,0.0,73,0.00,,CLR,0.00,VWS V14.01,2013-12-07 23:11:00,
2013-12-07 17:15:00,5.6,-1.2,30.68,North,356,0.0,0.0,73,0.00,,CLR,0.00,VWS V14.01,2013-12-07 23:15:00,
2013-12-07 17:20:00,5.6,-0.9,30.68,North,356,0.0,0.0,74,0.00,,CLR,0.00,VWS V14.01,2013-12-07 23:20:00,
2013-12-07 17:25:00,5.6,-0.9,30.67,North,356,0.0,0.0,74,0.00,,CLR,0.00,VWS V14.01,2013-12-07 23:25:00,
2013-12-07 17:30:00,5.5,-0.7,30.67,North,356,0.0,0.0,75,0.00,,CLR,0.00,VWS V14.01,2013-12-07 23:30:00,
2013-12-07 17:35:00,5.4,-0.8,30.67,North,356,0.0,0.0,75,0.00,,CLR,0.00,VWS V14.01,2013-12-07 23:35:00,
2013-12-07 17:40:00,5.4,-0.5,30.68,North,355,0.0,0.0,76,0.00,,CLR,0.00,VWS V14.01,2013-12-07 23:40:00,
2013-12-07 17:45:00,5.5,-0.1,30.67,North,356,0.0,0.0,77,0.00,,CLR,0.00,VWS V14.01,2013-12-07 23:45:00,
2013-12-07 17:50:00,5.4,-0.2,30.67,North,356,0.0,0.0,77,0.00,,CLR,0.00,VWS V14.01,2013-12-07 23:50:00,
2013-12-07 17:55:00,5.4,-0.2,30.67,North,356,0.0,0.0,77,0.00,,CLR,0.00,VWS V14.01,2013-12-07 23:55:00,
2013-12-07 18:00:00,5.4,-0.2,30.67,North,356,0.0,0.0,77,0.00,,CLR,0.00,VWS V14.01,2013-12-08 00:00:00,
2013-12-07 18:05:00,5.2,-0.4,30.68,North,355,0.0,0.0,77,0.00,,CLR,0.00,VWS V14.01,2013-12-08 00:05:00,
2013-12-07 18:10:00,5.0,-0.6,30.68,North,356,0.0,0.0,77,0.00,,CLR,0.00,VWS V14.01,2013-12-08 00:10:00,
2013-12-07 18:15:00,4.9,-0.4,30.67,North,355,0.0,0.0,78,0.00,,CLR,0.00,VWS V14.01,2013-12-08 00:15:00,
2013-12-07 18:20:00,5.0,-0.3,30.67,North,356,0.0,0.0,78,0.00,,CLR,0.00,VWS V14.01,2013-12-08 00:20:00,
2013-12-07 18:25:00,5.0,-0.3,30.67,North,356,0.0,0.0,78,0.00,,CLR,0.00,VWS V14.01,2013-12-08 00:25:00,
2013-12-07 18:30:00,5.0,-0.3,30.67,North,356,0.0,0.0,78,0.00,,CLR,0.00,VWS V14.01,2013-12-08 00:30:00,
2013-12-07 18:35:00,4.8,-0.8,30.67,North,356,0.0,0.0,77,0.00,,CLR,0.00,VWS V14.01,2013-12-08 00:35:00,
2013-12-07 18:40:00,5.1,-0.2,30.67,North,356,0.0,0.0,78,0.00,,CLR,0.00,VWS V14.01,2013-12-08 00:40:00,
2013-12-07 18:45:00,5.3,-0.1,30.67,North,356,0.0,0.0,78,0.00,,CLR,0.00,VWS V14.01,2013-12-08 00:45:00,
2013-12-07 18:50:00,5.4,0.0,30.67,North,356,0.0,0.0,78,0.00,,CLR,0.00,VWS V14.01,2013-12-08 00:50:00,
2013-12-07 18:55:00,5.4,0.0,30.67,North,356,0.0,0.0,78,0.00,,CLR,0.00,VWS V14.01,2013-12-08 00:55:00,
2013-12-07 19:00:00,5.5,0.4,30.67,North,356,0.0,0.0,79,0.00,,CLR,0.00,VWS V14.01,2013-12-08 01:00:00,
2013-12-07 19:05:00,5.8,0.7,30.67,North,356,0.0,0.0,79,0.00,,CLR,0.00,VWS V14.01,2013-12-08 01:05:00,
2013-12-07 19:10:00,5.8,0.7,30.67,North,356,0.0,0.0,79,0.00,,CLR,0.00,VWS V14.01,2013-12-08 01:10:00,
2013-12-07 19:15:00,5.9,0.8,30.67,North,356,0.0,0.0,79,0.00,,CLR,0.00,VWS V14.01,2013-12-08 01:15:00,
2013-12-07 19:20:00,6.1,1.3,30.66,North,355,0.0,0.0,80,0.00,,CLR,0.00,VWS V14.01,2013-12-08 01:20:00,
2013-12-07 19:25:00,6.2,1.4,30.66,North,356,0.0,0.0,80,0.00,,CLR,0.00,VWS V14.01,2013-12-08 01:25:00,
2013-12-07 19:30:00,6.3,1.2,30.66,North,356,0.0,0.0,79,0.00,,CLR,0.00,VWS V14.01,2013-12-08 01:30:00,
2013-12-07 19:35:00,6.4,1.3,30.65,North,11,1.0,1.0,79,0.00,,CLR,0.00,VWS V14.01,2013-12-08 01:35:00,
2013-12-07 19:40:00,6.6,1.2,30.65,NE,54,0.0,1.0,78,0.00,,CLR,0.00,VWS V14.01,2013-12-08 01:40:00,
2013-12-07 19:45:00,6.7,1.0,30.65,NE,41,0.0,1.0,77,0.00,,CLR,0.00,VWS V14.01,2013-12-08 01:45:00,
2013-12-07 19:50:00,6.8,1.1,30.65,ENE,63,1.0,2.0,77,0.00,,CLR,0.00,VWS V14.01,2013-12-08 01:50:00,
2013-12-07 19:55:00,6.9,0.9,30.65,ENE,58,0.0,2.0,76,0.00,,CLR,0.00,VWS V14.01,2013-12-08 01:55:00,
2013-12-07 20:00:00,7.0,1.0,30.65,ENE,67,0.0,2.0,76,0.00,,CLR,0.00,VWS V14.01,2013-12-08 02:00:00,
2013-12-07 20:05:00,7.0,0.8,30.65,ENE,65,0.0,2.0,75,0.00,,CLR,0.00,VWS V14.01,2013-12-08 02:05:00,
2013-12-07 20:10:00,7.0,1.0,30.65,ENE,65,0.0,2.0,76,0.00,,CLR,0.00,VWS V14.01,2013-12-08 02:10:00,
2013-12-07 20:15:00,7.0,1.0,30.65,ENE,68,0.0,2.0,76,0.00,,CLR,0.00,VWS V14.01,2013-12-08 02:15:00,
2013-12-07 20:20:00,7.0,1.0,30.65,ENE,72,0.0,2.0,76,0.00,,CLR,0.00,VWS V14.01,2013-12-08 02:20:00,
2013-12-07 20:25:00,7.0,1.0,30.65,ENE,64,0.0,2.0,76,0.00,,CLR,0.00,VWS V14.01,2013-12-08 02:25:00,
2013-12-07 20:30:00,7.1,1.4,30.65,ENE,65,1.0,2.0,77,0.00,,CLR,0.00,VWS V14.01,2013-12-08 02:30:00,
2013-12-07 20:35:00,7.1,1.4,30.65,ENE,67,0.0,1.0,77,0.00,,CLR,0.00,VWS V14.01,2013-12-08 02:35:00,
2013-12-07 20:40:00,7.2,1.5,30.65,ENE,67,0.0,1.0,77,0.00,,CLR,0.00,VWS V14.01,2013-12-08 02:40:00,
2013-12-07 20:45:00,7.2,1.5,30.65,ENE,67,0.0,1.0,77,0.00,,CLR,0.00,VWS V14.01,2013-12-08 02:45:00,
2013-12-07 20:50:00,7.3,1.6,30.65,East,98,0.0,1.0,77,0.00,,CLR,0.00,VWS V14.01,2013-12-08 02:50:00,
2013-12-07 20:55:00,7.4,1.4,30.66,East,98,1.0,1.0,76,0.00,,CLR,0.00,VWS V14.01,2013-12-08 02:55:00,
2013-12-07 21:00:00,7.4,1.4,30.66,ESE,108,1.0,2.0,76,0.00,,OVC100,0.00,VWS V14.01,2013-12-08 03:00:00,
2013-12-07 21:05:00,7.5,1.2,30.66,ESE,108,1.0,2.0,75,0.00,,OVC100,0.00,VWS V14.01,2013-12-08 03:05:00,
2013-12-07 21:10:00,7.6,1.6,30.66,SE,142,1.0,2.0,76,0.00,,OVC100,0.00,VWS V14.01,2013-12-08 03:10:00,
2013-12-07 21:15:00,7.8,1.5,30.67,ESE,112,2.0,3.0,75,0.00,,OVC100,0.00,VWS V14.01,2013-12-08 03:15:00,
2013-12-07 21:20:00,7.9,1.1,30.67,ESE,103,1.0,4.0,73,0.00,,OVC100,0.00,VWS V14.01,2013-12-08 03:20:00,
2013-12-07 21:25:00,8.0,1.2,30.67,ESE,118,3.0,4.0,73,0.00,,OVC100,0.00,VWS V14.01,2013-12-08 03:25:00,
2013-12-07 21:30:00,8.0,0.6,30.67,SE,124,3.0,5.0,71,0.00,,OVC100,0.00,VWS V14.01,2013-12-08 03:30:00,
2013-12-07 21:35:00,8.1,0.7,30.67,ESE,115,4.0,4.0,71,0.00,,OVC100,0.00,VWS V14.01,2013-12-08 03:35:00,
2013-12-07 21:40:00,8.2,1.4,30.67,SSE,147,3.0,5.0,73,0.00,,OVC100,0.00,VWS V14.01,2013-12-08 03:40:00,
2013-12-07 21:45:00,8.2,0.8,30.66,ESE,107,3.0,5.0,71,0.00,,OVC100,0.00,VWS V14.01,2013-12-08 03:45:00,
2013-12-07 21:50:00,8.2,0.8,30.66,SE,131,3.0,5.0,71,0.00,,OVC100,0.00,VWS V14.01,2013-12-08 03:50:00,
2013-12-07 21:55:00,8.2,0.8,30.66,SE,135,2.0,5.0,71,0.00,,OVC070,0.00,VWS V14.01,2013-12-08 03:55:00,
2013-12-07 22:00:00,8.3,1.1,30.66,SE,134,3.0,5.0,72,0.00,,OVC070,0.00,VWS V14.01,2013-12-08 04:00:00,
2013-12-07 22:05:00,8.3,0.9,30.66,SE,125,5.0,5.0,71,0.00,,OVC070,0.00,VWS V14.01,2013-12-08 04:05:00,
2013-12-07 22:10:00,8.2,1.0,30.65,SE,131,5.0,5.0,72,0.00,,OVC070,0.00,VWS V14.01,2013-12-08 04:10:00,
2013-12-07 22:15:00,8.2,0.8,30.65,SE,127,4.0,5.0,71,0.00,,OVC070,0.00,VWS V14.01,2013-12-08 04:15:00,
2013-12-07 22:20:00,8.3,0.9,30.65,SSE,148,2.0,5.0,71,0.00,,OVC070,0.00,VWS V14.01,2013-12-08 04:20:00,
2013-12-07 22:25:00,8.3,1.1,30.65,SSE,149,4.0,6.0,72,0.00,,OVC070,0.00,VWS V14.01,2013-12-08 04:25:00,
2013-12-07 22:30:00,8.3,0.9,30.65,SE,139,3.0,6.0,71,0.00,,OVC070,0.00,VWS V14.01,2013-12-08 04:30:00,
2013-12-07 22:35:00,8.4,0.9,30.66,SSE,155,6.0,6.0,71,0.00,,OVC070,0.00,VWS V14.01,2013-12-08 04:35:00,
2013-12-07 22:40:00,8.4,0.9,30.66,SSE,153,5.0,6.0,71,0.00,,OVC070,0.00,VWS V14.01,2013-12-08 04:40:00,
2013-12-07 22:45:00,8.3,0.9,30.66,SE,143,4.0,7.0,71,0.00,,OVC070,0.00,VWS V14.01,2013-12-08 04:45:00,
2013-12-07 22:50:00,8.3,1.5,30.65,ESE,121,5.0,8.0,73,0.00,,OVC070,0.00,VWS V14.01,2013-12-08 04:50:00,
2013-12-07 22:55:00,8.2,1.6,30.65,ESE,110,6.0,8.0,74,0.00,,OVC070,0.00,VWS V14.01,2013-12-08 04:55:00,
2013-12-07 23:00:00,8.3,2.3,30.64,SE,124,6.0,8.0,76,0.00,,OVC050,0.00,VWS V14.01,2013-12-08 05:00:00,
2013-12-07 23:01:00,8.2,2.2,30.64,SE,127,4.0,5.0,76,0.00,,OVC050,0.00,VWS V14.01,2013-12-08 05:01:00,
2013-12-07 23:06:00,8.2,2.2,30.64,SE,124,6.0,8.0,76,0.00,,OVC050,0.00,VWS V14.01,2013-12-08 05:06:00,
2013-12-07 23:11:00,8.1,2.1,30.64,SE,124,6.0,8.0,76,0.00,,OVC050,0.00,VWS V14.01,2013-12-08 05:11:00,
2013-12-07 23:16:00,8.1,2.7,30.64,SE,134,6.0,8.0,78,0.00,,OVC050,0.00,VWS V14.01,2013-12-08 05:16:00,
2013-12-07 23:21:00,8.0,2.8,30.64,ESE,115,6.0,8.0,79,0.00,,OVC050,0.00,VWS V14.01,2013-12-08 05:21:00,
2013-12-07 23:26:00,8.0,3.1,30.64,SSE,157,5.0,8.0,80,0.00,,OVC050,0.00,VWS V14.01,2013-12-08 05:26:00,
2013-12-07 23:30:00,8.0,3.1,30.64,SE,136,5.0,8.0,80,0.00,,,0.00,VWS V14.01,2013-12-08 05:30:00,
2013-12-07 23:31:00,8.0,3.1,30.64,ESE,117,6.0,9.0,80,0.00,,OVC050,0.00,VWS V14.01,2013-12-08 05:31:00,
2013-12-07 23:36:00,8.0,3.1,30.64,SE,139,7.0,9.0,80,0.00,,OVC050,0.00,VWS V14.01,2013-12-08 05:36:00,
2013-12-07 23:41:00,7.9,3.0,30.63,SE,124,8.0,9.0,80,0.00,,OVC050,0.00,VWS V14.01,2013-12-08 05:41:00,
2013-12-07 23:46:00,7.8,3.2,30.63,ESE,117,7.0,10.0,81,0.00,,,0.00,VWS V14.01,2013-12-08 05:46:00,
2013-12-07 23:51:00,7.8,3.5,30.63,ESE,114,7.0,10.0,82,0.00,,,0.00,VWS V14.01,2013-12-08 05:51:00,
2013-12-07 23:56:00,7.8,3.5,30.63,ESE,118,5.0,10.0,82,0.00,,,0.00,VWS V14.01,2013-12-08 05:56:00,